Skip Page Navigation
NASA JPL Caltech
NASA Logo - Jet Propulsion Laboratory + View the NASA Portal
+ Center for Near-Earth Object Studies
JPL Home Earth Solar System Stars & Galaxies Technology
JPL Solar System Dynamics
BODIES ORBITS EPHEMERIDES TOOLS PHYSICAL DATA DISCOVERY FAQ SITE MAP
JPL Small-Body Database Browser
Search: [ help ]  
9196 Sukagawa (1992 WP5)
Classification: Main-belt Asteroid          SPK-ID: 2009196
Ephemeris | Orbit Diagram | Orbital Elements | Mission Design | Physical Parameters | Discovery Circumstances ]

[ hide orbit diagram ]
Orbit Diagram
[ switch to new HTML5 viewer ]

Note: This Java-based orbit viewer will eventually be retired.

Note: Make sure you have Java enabled on your browser to see the applet. This applet is provided as a 3D orbit visualization tool. The applet was implemented using two-body methods, and hence should not be used for determining accurate long-term trajectories (over several years or decades) or planetary encounter circumstances. For accurate long-term ephemerides, please instead use our Horizons system.

Note: If the applet is not working, here are some notes that might help.
Orbit Viewer

Additional Notes: the orbits shown in the applet are color coded. The planets are white lines, and the asteroid/comet is a blue line. The bright white line indicates the portion of the orbit that is above the ecliptic plane, and the darker portion is below the ecliptic plane. Likewise for the asteroid/comet orbit, the light blue indicates the portion above the ecliptic plane, and the dark blue the portion below the ecliptic plane.

Orbit Viewer applet originally written and kindly provided by Osamu Ajiki (AstroArts), and further modified by Ron Baalke (JPL).


Orbital Elements at Epoch 2459000.5 (2020-May-31.0) TDB
Reference: JPL 28 (heliocentric ecliptic J2000)
 Element Value Uncertainty (1-sigma)   Units 
e .06943365029875219 3.5779e-08  
a 2.211968016942897 6.1973e-09 au
q 2.058383003182459 8.0583e-08 au
i 3.436262856089456 3.1542e-06 deg
node 104.3706027673689 6.8956e-05 deg
peri 145.8086801653245 7.5212e-05 deg
M 303.9667078721629 3.1547e-05 deg
tp 2459187.529593616143
(2020-Dec-04.02959362)
0.00010551 TDB
period 1201.618736736013
3.29
5.0499e-06
1.383e-08
d
yr
n .299595860978231 1.2591e-09 deg/d
Q 2.365553030703334 6.6276e-09 au
  Orbit Determination Parameters
   # obs. used (total)      2490  
   data-arc span      17920 days (49.06 yr)  
   first obs. used      1971-05-25  
   last obs. used      2020-06-16  
   planetary ephem.      DE431  
   SB-pert. ephem.      SB431-N16  
   condition code      0  
   norm. resid. RMS      .42953  
   source      ORB  
   producer      Otto Matic  
   solution date      2020-Jun-23 16:56:04  

Additional Information
 Earth MOID = 1.04503 au 
 Jupiter MOID = 2.63963 au 
 T_jup = 3.651 
[ show covariance matrix ]

Ephemeris | Orbit Diagram | Orbital Elements | Mission Design | Physical Parameters | Discovery Circumstances ]

Physical Parameter Table
Parameter Symbol Value Units Sigma Reference Notes
absolute magnitude H 13.7   n/a MPO347598  
diameter diameter 4.700 km 0.052 urn:nasa:pds:neowise_diameters_albedos::2.0[mainbelt] (http://adsabs.harvard.edu/abs/2011ApJ...741...68M)  
rotation period rot_per 7.10 h n/a LCDB (Rev. 2019-August); Warner et al., 2009 Published Reference List:
[Chang, C.-K.; Ip, W.-H.; Cheng, Y.-C.; Ngeow, C.-C.; et al. (2014) Astrophys. J. 788, A17.]
[Waszczak, A.; Chang, C.-K.; Ofeck, E.O.; Laher, F.; et al. (2015) Astron. J. 150, A75.]
[Durech, J.; Hanus, J.; Ali-Lagoa, V. (2018) Astron. Astrophys. 617, A57.]
geometric albedo albedo 0.290   0.031 urn:nasa:pds:neowise_diameters_albedos::2.0[mainbelt] (http://adsabs.harvard.edu/abs/2011ApJ...741...68M)  

9196 Sukagawa           Discovered 1992 Nov. 27 by T. Seki at Geisei.
In the city of Sukagawa, Fukushima prefecture, there exists the best peony garden in the world. The city also hosts "Taimatsuakashi", one of the three large Japanese fire festivals. Sukagawa is the hometown of marathon runner Kokichi Tsuburaya and movie producer Eiji Tsuburaya. The name was suggested by H. Sato.
NOTE: some special characters may not display properly (any characters within {} are an attempt to place the proper accent above a character)
Reference: 20010509/MPCPages.arcLast Updated: 2009-05-11

Alternate Designations
 1992 WP5 = 1971 KT = 1989 YT5 
Ephemeris | Orbit Diagram | Orbital Elements | Mission Design | Physical Parameters | Discovery Circumstances ]
ABOUT SSD CREDITS/AWARDS PRIVACY/COPYRIGHT GLOSSARY LINKS
FirstGov 2020-Jul-10 08:03 UT
(server date/time)  
NASA Home Page
Site Manager:   Ryan S. Park
Webmaster  Alan B. Chamberlin